sat.trackr.live / text

‹ back to catalog

TRANSPORTER-15 OBJECT CX

NORAD 66759 · 2025-276CX

PAYLOAD ACTIVE UNKNOWN

§ Identity

Operator
Country
TBD
Launch date
2025-11-28
Launch site
AFWTR
Launch vehicle
Mass (kg)
RCS (m²)

External: N2YO · Heavens-Above · Gunter

§ Orbital elements

Epoch: 2026-09-20T04:21:16.822944Z

Period
94.62 min
Inclination
97.4086°
Eccentricity
0.0001224
Mean motion
15.21919468 rev/d
Perigee alt
499.2 km
Apogee alt
500.9 km
Semi-major
6,878.2 km
B*
1.7013e-4
RAAN
335.5002°
Arg perigee
41.9610°
Mean anomaly
318.1719°
Rev number
4,488

§ Raw data

TRANSPORTER-15 OBJECT CX1 66759U 25276CX  26263.18144471  .00003805  00000+0  17013-3 0  99942 66759  97.4086 335.5002 0001224  41.9610 318.1719 15.21919468 44887

JSON: /api/v1/satellites/66759 · /tle

For live sub-satellite position, see the globe view (requires WebGL).

§ Visibility from observer

Set your observer location to see the next 7 days of passes ≥ 10°. The values pass through the URL so the page stays shareable.

No JS? Fill the form by hand. The geolocation button needs JavaScript.